Weather History for Robstown, TX

Change the Weather History Date:

Tuesday, December 4, 2012

  Actual Average (KCRP) Record (KCRP)
Temperature  
Mean Temperature 76 °F 61 °F  
Max Temperature 86 °F 71 °F 90 °F (1977)
Min Temperature 66 °F 51 °F 29 °F (1897)
Degree Days  
Heating Degree Days 0 6  
Month to date heating degree days 24  
Since 1 July heating degree days 125  
Cooling Degree Days 11 2  
Month to date cooling degree days 8  
Year to date cooling degree days 3483  
Growing Degree Days 26 (Base 50)    
Moisture  
Dew Point 66 °F    
Average Humidity 76    
Maximum Humidity 96    
Minimum Humidity 40    
Precipitation  
Precipitation 0.00 in 0.05 in 1.76 in (1935)
Month to date precipitation 0.20  
Year to date precipitation 30.13  
Snow  
Snow 0.00 in - - ()
Month to date snowfall  
Since 1 July snowfall  
Snow Depth -    
Sea Level Pressure  
Sea Level Pressure 30.08 in    
Wind  
Wind Speed 6 mph (SSE)    
Max Wind Speed 16 mph    
Max Gust Speed 17 mph    
Visibility 8 miles    
Events Fog , Rain , Thunderstorm    
T = Trace of Precipitation, MM = Missing Value Source: NWS Daily Summary

Daily Weather History Graph

Daily Weather History Graph

Search for Another Location

Airport:

Trip Planner

Search our weather history database for the weather conditions in past years. The results will help you decide how hot, cold, wet, or windy it might be!

Date:

Astronomy

Dec. 04, 2012 Rise Set
Actual Time 7:06 AM CST 5:35 PM CST
Civil Twilight 6:41 AM CST 6:00 PM CST
Nautical Twilight 6:12 AM CST 6:29 PM CST
Astronomical Twilight 5:44 AM CST 6:58 PM CST
Moon 11:04 PM CST (12/4) 11:19 AM CST (12/4)
Length of Visible Light 11h 19m
Length of Day
10h 28m
Waning Gibbous, 69% of the Moon is Illuminated
Dec 4
Waning Gibbous
Dec 6
Last Quarter
Dec 13
New
Dec 19
First Quarter
Dec 28
Full

Hourly Weather History & Observations

Time (CST) Temp. Heat Index Dew Point Humidity Pressure Visibility Wind Dir Wind Speed Gust Speed Precip Events Conditions
12:15 AM 69.1 °F - 66.4 °F 91% 30.02 in 10.0 mi East 5.8 mph - N/A   Clear
12:35 AM 68.4 °F - 65.8 °F 92% 30.02 in 10.0 mi ESE 6.9 mph - N/A   Clear
12:55 AM 68.0 °F - 65.7 °F 92% 30.02 in 10.0 mi ESE 6.9 mph - N/A   Clear
1:15 AM 67.6 °F - 65.5 °F 93% 30.02 in 10.0 mi ESE 5.8 mph - N/A   Clear
1:35 AM 67.5 °F - 65.5 °F 93% 30.02 in 10.0 mi ESE 5.8 mph - N/A   Clear
1:55 AM 68.0 °F - 65.8 °F 93% 30.03 in 7.0 mi ESE 5.8 mph - N/A   Clear
2:15 AM 67.3 °F - 65.5 °F 94% 30.03 in 7.0 mi ESE 5.8 mph - N/A   Clear
2:35 AM 67.1 °F - 65.5 °F 95% 30.02 in 7.0 mi SE 6.9 mph - N/A   Clear
2:55 AM 68.2 °F - 66.6 °F 95% 30.02 in 7.0 mi SE 5.8 mph - N/A   Clear
3:15 AM 68.0 °F - 66.2 °F 94% 30.03 in 7.0 mi ESE 3.5 mph - N/A   Clear
3:35 AM 67.1 °F - 65.5 °F 95% 30.03 in 5.0 mi SE 5.8 mph - N/A   Clear
3:55 AM 67.1 °F - 65.7 °F 95% 30.03 in 4.0 mi ESE 5.8 mph - N/A   Clear
4:15 AM 67.1 °F - 65.7 °F 95% 30.03 in 0.5 mi ESE 6.9 mph - N/A Fog Fog
4:35 AM 67.6 °F - 66.4 °F 96% 30.03 in 2.0 mi ESE 4.6 mph - N/A   Clear
4:55 AM 67.3 °F - 66.2 °F 96% 30.02 in 1.5 mi SE 8.1 mph - N/A   Mist
5:15 AM 68.0 °F - 66.7 °F 96% 30.02 in 3.0 mi SE 8.1 mph - N/A   Clear
5:35 AM 67.1 °F - 65.8 °F 96% 30.03 in 5.0 mi SE 5.8 mph - N/A   Clear
5:55 AM 67.1 °F - 66.0 °F 96% 30.03 in 4.0 mi SSE 5.8 mph - N/A   Clear
6:15 AM 67.3 °F - 66.2 °F 96% 30.03 in 4.0 mi SSE 4.6 mph - N/A   Clear
6:35 AM 67.5 °F - 66.2 °F 96% 30.04 in 1.0 mi SSE 4.6 mph - N/A   Overcast
6:55 AM 66.7 °F - 65.5 °F 96% 30.05 in 0.5 mi SE 4.6 mph - N/A Fog Fog
7:15 AM 66.0 °F - 64.8 °F 96% 30.05 in 0.2 mi SE 4.6 mph - N/A Fog Fog
7:35 AM 67.1 °F - 65.8 °F 96% 30.07 in 0.2 mi ESE 3.5 mph - N/A Fog Fog
7:55 AM 67.5 °F - 66.4 °F 96% 30.09 in 0.2 mi East 3.5 mph - N/A Fog Fog
8:15 AM 68.9 °F - 67.6 °F 96% 30.10 in 0.2 mi East 3.5 mph - N/A Fog Fog
8:35 AM 69.6 °F - 68.4 °F 96% 30.10 in 2.5 mi ESE 4.6 mph - N/A   Mostly Cloudy
8:55 AM 70.9 °F - 69.6 °F 96% 30.11 in 10.0 mi SE 4.6 mph - N/A   Scattered Clouds
9:15 AM 73.6 °F - 70.5 °F 90% 30.12 in 10.0 mi SSE 3.5 mph - N/A   Clear
9:55 AM 78.3 °F - 69.8 °F 75% 30.13 in 10.0 mi South 8.1 mph - N/A   Mostly Cloudy
10:15 AM 78.8 °F - 69.8 °F 74% 30.13 in 10.0 mi South 8.1 mph - N/A   Scattered Clouds
10:35 AM 80.2 °F 83.3 °F 69.6 °F 70% 30.13 in 10.0 mi SSW 8.1 mph - N/A   Scattered Clouds
10:55 AM 80.2 °F 83.1 °F 68.9 °F 68% 30.14 in 10.0 mi South 6.9 mph - N/A   Scattered Clouds
11:15 AM 79.7 °F - 68.0 °F 67% 30.14 in 10.0 mi WSW 8.1 mph - N/A   Scattered Clouds
11:35 AM 81.5 °F 84.2 °F 68.0 °F 63% 30.12 in 10.0 mi SSW 4.6 mph - N/A   Scattered Clouds
11:55 AM 83.1 °F 85.4 °F 66.6 °F 57% 30.11 in 10.0 mi South 8.1 mph - N/A   Clear
12:15 PM 82.4 °F 84.8 °F 66.6 °F 59% 30.11 in 10.0 mi WSW 6.9 mph - N/A   Scattered Clouds
12:35 PM 84.7 °F 85.9 °F 63.9 °F 49% 30.10 in 10.0 mi West 8.1 mph - N/A   Scattered Clouds
12:55 PM 85.3 °F 85.9 °F 62.4 °F 46% 30.08 in 10.0 mi SSW 9.2 mph - N/A   Scattered Clouds
1:15 PM 85.1 °F 85.7 °F 62.1 °F 46% 30.07 in 10.0 mi SSW 9.2 mph 17.3 mph N/A   Clear
1:35 PM 85.8 °F 86.6 °F 63.0 °F 46% 30.06 in 10.0 mi SSE 6.9 mph - N/A   Clear
1:55 PM 86.0 °F 86.8 °F 63.0 °F 46% 30.05 in 10.0 mi SSW 6.9 mph - N/A   Clear
2:15 PM 86.2 °F 86.3 °F 61.3 °F 43% 30.05 in 10.0 mi WSW 8.1 mph - N/A   Clear
2:35 PM 86.7 °F 86.8 °F 60.8 °F 42% 30.05 in 10.0 mi SW 6.9 mph - N/A   Clear
2:55 PM 86.5 °F 86.3 °F 60.4 °F 41% 30.03 in 10.0 mi SW 5.8 mph 9.2 mph N/A   Clear
3:15 PM 86.4 °F 86.3 °F 60.8 °F 42% 30.03 in 10.0 mi SSW 6.9 mph - N/A   Clear
3:35 PM 86.5 °F 86.5 °F 60.6 °F 42% 30.03 in 10.0 mi SW 4.6 mph - N/A   Clear
3:55 PM 86.9 °F 86.7 °F 60.3 °F 41% 30.03 in 10.0 mi WSW 8.1 mph - N/A   Clear
4:15 PM 86.9 °F 86.5 °F 59.9 °F 40% 30.03 in 10.0 mi SW 6.9 mph - N/A   Clear
4:35 PM 86.0 °F 85.9 °F 60.3 °F 42% 30.04 in 10.0 mi South 6.9 mph - N/A   Clear
4:55 PM 85.5 °F 85.2 °F 60.1 °F 42% 30.05 in 10.0 mi SW 6.9 mph - N/A   Mostly Cloudy
5:15 PM 85.1 °F 84.8 °F 59.9 °F 42% 30.06 in 10.0 mi South 5.8 mph - N/A   Overcast
5:35 PM 80.2 °F 83.2 °F 69.3 °F 69% 30.06 in 10.0 mi SE 16.1 mph - N/A   Overcast
5:55 PM 78.8 °F - 70.0 °F 74% 30.08 in 10.0 mi SE 10.4 mph - N/A   Overcast
6:15 PM 78.3 °F - 69.8 °F 75% 30.08 in 10.0 mi SSE 5.8 mph - N/A   Overcast
6:35 PM 78.1 °F - 69.8 °F 76% 30.09 in 10.0 mi SSE 6.9 mph - N/A   Overcast
6:55 PM 77.9 °F - 69.3 °F 75% 30.11 in 10.0 mi South 5.8 mph - N/A   Overcast
7:15 PM 77.9 °F - 69.3 °F 75% 30.11 in 10.0 mi South 4.6 mph - N/A   Overcast
7:35 PM 77.9 °F - 69.8 °F 76% 30.12 in 10.0 mi Calm Calm - N/A Rain Light Rain
7:55 PM 77.0 °F - 70.2 °F 79% 30.12 in 10.0 mi North 6.9 mph - N/A   Drizzle
8:15 PM 76.3 °F - 67.5 °F 74% 30.12 in 10.0 mi North 10.4 mph 16.1 mph N/A   Mostly Cloudy
8:35 PM 75.6 °F - 67.1 °F 75% 30.13 in 10.0 mi NNE 10.4 mph 16.1 mph N/A   Mostly Cloudy
8:55 PM 74.7 °F - 66.4 °F 75% 30.14 in 10.0 mi NNE 11.5 mph - N/A Thunderstorm Mostly Cloudy
9:15 PM 74.1 °F - 65.3 °F 74% 30.14 in 10.0 mi NNE 9.2 mph - N/A   Scattered Clouds
9:35 PM 72.9 °F - 64.9 °F 76% 30.14 in 10.0 mi NNE 8.1 mph - N/A   Clear
9:55 PM 72.0 °F - 65.5 °F 80% 30.14 in 10.0 mi NNE 6.9 mph - N/A   Clear
10:15 PM 70.9 °F - 64.6 °F 80% 30.14 in 10.0 mi North 8.1 mph - N/A   Clear
10:35 PM 69.6 °F - 63.7 °F 81% 30.14 in 10.0 mi North 8.1 mph - N/A   Clear
10:55 PM 69.1 °F - 63.5 °F 82% 30.15 in 10.0 mi North 8.1 mph - N/A   Clear
11:15 PM 68.2 °F - 63.7 °F 85% 30.15 in 10.0 mi North 8.1 mph - N/A   Clear
11:35 PM 68.0 °F - 63.9 °F 87% 30.15 in 10.0 mi North 10.4 mph - N/A   Clear
11:55 PM 68.0 °F - 63.5 °F 85% 30.15 in 10.0 mi North 9.2 mph - N/A   Clear